Weather Service Report


100 
ASUS43 KMKX 301521
RWRWI 

WISCONSIN REGIONAL WEATHER ROUNDUP
NATIONAL WEATHER SERVICE MILWAUKEE/SULLIVAN WI
1000 AM CDT WED JUL 30 2014

NOTE: "FAIR" INDICATES FEW OR NO CLOUDS BELOW 12,000 FEET WITH NO
SIGNIFICANT WEATHER AND/OR OBSTRUCTIONS TO VISIBILITY.

WIZ001-002-006>008-014>016-023>028-301600-
NORTHWEST WISCONSIN
  
CITY           SKY/WX    TMP DP  RH WIND       PRES   REMARKS
SUPERIOR ARPT  SUNNY     62  59  90 SW3       30.07S                  
ASHLAND        MOSUNNY   62  58  86 SW7       30.07F                  
HAYWARD        CLOUDY    59  57  93 S5        30.09S                  
SIREN          SUNNY     63  59  88 CALM      30.09S                  
RICE LAKE      CLOUDY    59  58  96 CALM      30.11S                  
LADYSMITH      CLOUDY    58  56  94 CALM      30.12S                  
EAU CLAIRE     CLOUDY    60  58  92 CALM      30.09S                  
MENOMONIE      SUNNY     67  55  66 CALM      30.09S                  
NEW RICHMOND   SUNNY     67  56  67 CALM      30.10S                  
OSCEOLA        SUNNY     68  60  75 CALM      30.12S                  
$$
 
WIZ003>005-009-010-017-018-301600-
NORTH CENTRAL WISCONSIN
  
CITY           SKY/WX    TMP DP  RH WIND       PRES   REMARKS
WOODRUFF       SUNNY     64  60  87 NW3       30.08S                  
RHINELANDER    SUNNY     61  53  75 CALM      30.08F                  
EAGLE RIVER    SUNNY     61  50  68 NW3       30.07F                  
LAND O LAKES   SUNNY     63  49  61 NE3       30.07F                  
PHILLIPS       CLOUDY    58  55  89 CALM      30.09S                  
TOMAHAWK       CLOUDY    55  54  97 W3        30.10S                  
MEDFORD        CLOUDY    56  56  99 CALM      30.09S                  
MERRILL        MOSUNNY   58  56  95 N3        30.08F                  
$$
 
WIZ029-030-035-036-043>047-301600-
CENTRAL WISCONSIN
  
CITY           SKY/WX    TMP DP  RH WIND       PRES   REMARKS
WAUSAU         LGT RAIN  64  54  69 VRB6      30.06F                  
MOSINEE        SUNNY     64  54  68 NE3       30.09S                  
MARSHFIELD     SUNNY     66  55  67 CALM      30.08S                  
STEVENS POINT  MOSUNNY   64  52  65 N5        30.07F                  
WAUPACA        SUNNY     68  57  67 N3        30.06F                  
WAUTOMA        PTSUNNY   66  57  72 S3        30.07S                  
WISC RAPIDS    SUNNY     68  56  65 MISG      30.08S                  
CAMP DOUGLAS   CLOUDY    59  59 100 N3        30.08S                  
$$
 
WIZ011>013-019>022-031-037>040-048>050-301600-
NORTHEAST WISCONSIN
  
CITY           SKY/WX    TMP DP  RH WIND       PRES   REMARKS
ANTIGO         SUNNY     62  53  70 NW7       30.07F                  
STURGEON BAY   SUNNY     61  54  77 NW7       30.05S                  
GREEN BAY      SUNNY     67  57  70 N5        30.05F                  
MANITOWOC      PTSUNNY   66  55  67 NW6       30.05S                  
APPLETON       PTSUNNY   64  54  68 N8        30.06S                  
CLINTONVILLE   SUNNY     66  52  59 NE5       30.06S                  
OSHKOSH        PTSUNNY   65  58  78 VRB3      30.05S                  
$$
 
WIZ032>034-041-042-053>061-301600-
SOUTHWEST WISCONSIN
  
CITY           SKY/WX    TMP DP  RH WIND       PRES   REMARKS
LA CROSSE      SUNNY     67  59  75 N7        30.08S                  
SPARTA         CLOUDY    59  58  98 N5        30.10R                  
VIROQUA        FAIR      66  61  84 NW7       30.09R                  
BOSCOBEL       SUNNY     69  60  73 CALM      30.08S                  
PRAIRIE DU CHI SUNNY     69  58  67 NW7       30.08R                  
PLATTEVILLE    FAIR      68  60  75 N5        30.09S                  
$$

WIZ056-057-062-063-064-067-068-301600-
SOUTH CENTRAL WISCONSIN
  
CITY           SKY/WX    TMP DP  RH WIND       PRES   REMARKS
BARABOO/DELLS  CLOUDY    62  55  80 N5        30.07S                  
LONE ROCK      SUNNY     71  59  65 W5        30.07S                  
WATERTOWN      CLOUDY    59  58  96 N3        30.06R                  
MADISON        MOSUNNY   68  58  70 N6        30.06S                  
MIDDLETON      FAIR      68  58  69 N5        30.06S                  
MONROE         SUNNY     68  59  73 NW3       30.07S                  
JANESVILLE     SUNNY     70  55  60 NW6       30.05S                  
$$
 
WIZ051-052-058>065-066-070>072-301600-
SOUTHEAST WISCONSIN
  
CITY           SKY/WX    TMP DP  RH WIND       PRES   REMARKS
MILWAUKEE      PTSUNNY   65  58  78 VRB5      30.04S                  
WAUKESHA       CLOUDY    59  57  94 MISG      30.06S                  
MILWAUKEE/TIMM CLOUDY    64  57  77 N6        30.05R                  
RACINE         CLOUDY    65  59  81 NE6       30.06R                  
BURLINGTON     MOSUNNY   64  58  80 N5        30.05S                  
KENOSHA        MOSUNNY   67  59  75 N6        30.05R                  
FOND DU LAC    CLOUDY    66  57  72 NE9       30.06R                  
SHEBOYGAN      SUNNY     65  55  70 N7        30.05R                  
WEST BEND      CLOUDY    64  55  72 NE7       30.05R                  
JUNEAU         CLOUDY    63  58  84 CALM      30.07S                  
$$

LSZ147-162-301600-
LAKE SUPERIOR
  
STATION/POSITION TIME  TEMP    WIND        PRES    WAVE
                       AIR SEA DIR/SP/G            HT/PER
                 (UTC) (F)     (DEG/KT/KT) (MB)    (FT/S)
W MID LAKE BUOY  1450   47 42  220/  8/  8 1017.5F   0
PORT WING        1400   56     220/  5/  6 1018.6S
SAXON HARBOR     1400           CALM  /  5 1018.3F
$$
 
LMZ867-665-643>646-301600-
LAKE MICHIGAN
  
STATION/POSITION TIME  TEMP    WIND        PRES    WAVE
                       AIR SEA DIR/SP/G            HT/PER
                 (UTC) (F)     (DEG/KT/KT) (MB)    (FT/S)
N MID LAKE BUOY  1450   52 52   30/  4/  8 1016.7R   1/ 3
NORTHPORT PIER   1400   59     320/  8/ 10 1017.3R
SISTER BAY       1440   62     360/  9/ 11   N/A
KEWAUNEE LAKESHO 1500   61     150/  3/  5 1017.9S
SHEBOYGAN LAKESH 1500   58      10/  9/  9 1017.8R
PORT WASHINGTON  1400   63      40/  5/  7 1017.6S
ATWATER BUOY     1500   62     360/  8     1018.5R
MILWAUKEE LAKESH 1500   61      40/ 11/ 12   N/A
S MID LAKE BUOY  1450   60 60  310/  6/  8 1017.2R   1
KENOSHA   LAKESH 1500   63      40/  8/  9 1016.9S
$$

TC  - TEMPERATURE IN CELSIUS
VSB - VISIBILITY IN STATUTE MILES
WCI - WIND CHILL INDEX
HX  - HEAT INDEX


Return to Home page


Western Regional Climate Center, wrcc@dri.edu